Location: Igon
(43.1667°N, 0.2333°W)
Time: 03:42:49
(UTC+00:00)

NOAA 16 DEB - Pass Details

Date: 16 June 2021
Orbit: 682 x 809 km, 98.9° (Epoch: 03 August)

Event Time Altitude Azimuth Distance (km) Brightness Sun altitude
Rises 02:26:07 0° 117° (ESE) 3,309 ? -15.6°
Reaches altitude 10° 02:29:13 10° 98° (E) 2,392 ? -15.3°
Maximum altitude 02:32:31 17° 59° (ENE) 1,956 ? -15.0°
Drops below altitude 10° 02:35:49 10° 21° (NNE) 2,406 ? -14.6°
Sets 02:38:56 0° 2° (N) 3,336 ? -14.3°
